| time (UTC) | temp F | wind direction | speed knots | gust knots | rain 1hr in | rain 24hr in | rain mn in | humidity % | barometer mb |
| 20260502161203 | 65 | 360 | 0.9 | 5.2 | 0.00 | 0.00 | 0.00 | 62 | 1012.2 |
| 20260502160511 | 65 | 360 | 0.9 | 5.2 | 0.00 | 0.00 | 0.00 | 62 | 1012.2 |
| 20260502152011 | 66 | 0 | 0.0 | 5.2 | 0.00 | 0.00 | 0.00 | 58 | 1012.8 |
| 20260502151533 | 66 | 0 | 0.0 | 5.2 | 0.00 | 0.00 | 0.00 | 59 | 1012.8 |
| 20260502151009 | 66 | 0 | 0.9 | 5.2 | 0.00 | 0.00 | 0.00 | 59 | 1012.9 |
| 20260502150511 | 66 | 360 | 0.9 | 5.2 | 0.00 | 0.00 | 0.00 | 59 | 1013.0 |
| 20260502130511 | 66 | 225 | 0.9 | 7.8 | 0.00 | 0.00 | 0.00 | 56 | 1015.0 |
| 20260502123513 | 64 | 360 | 0.9 | 7.0 | 0.00 | 0.00 | 0.00 | 61 | 1015.2 |
| 20260502123034 | 64 | 360 | 1.7 | 7.0 | 0.00 | 0.00 | 0.00 | 61 | 1015.2 |
| 20260502122512 | 64 | 360 | 2.6 | 8.7 | 0.00 | 0.00 | 0.00 | 61 | 1015.1 |
| 20260502122013 | 64 | 360 | 2.6 | 8.7 | 0.00 | 0.00 | 0.00 | 62 | 1015.2 |
| 20260502121531 | 64 | 205 | 1.7 | 7.0 | 0.00 | 0.00 | 0.00 | 61 | 1015.2 |
| 20260502121010 | 64 | 360 | 0.9 | 7.0 | 0.00 | 0.00 | 0.00 | 59 | 1015.3 |
| 20260502120510 | 65 | 360 | 2.6 | 8.7 | 0.00 | 0.00 | 0.00 | 59 | 1015.5 |
| 20260502115511 | 65 | 157 | 0.9 | 8.7 | 0.00 | 0.00 | 0.00 | 60 | 1015.6 |
| 20260502115012 | 65 | 360 | 1.7 | 8.7 | 0.00 | 0.00 | 0.00 | 60 | 1015.7 |
| 20260502114528 | 65 | 203 | 1.7 | 7.0 | 0.00 | 0.00 | 0.00 | 61 | 1015.6 |
| 20260502114008 | 64 | 360 | 1.7 | 5.2 | 0.00 | 0.00 | 0.00 | 61 | 1015.7 |
| 20260502113512 | 64 | 161 | 0.9 | 5.2 | 0.00 | 0.00 | 0.00 | 62 | 1015.6 |
| 20260502113028 | 63 | 360 | 1.7 | 5.2 | 0.00 | 0.00 | 0.00 | 64 | 1015.5 |
| 20260502112511 | 63 | 360 | 0.9 | 7.0 | 0.00 | 0.00 | 0.00 | 63 | 1015.7 |
| 20260502112013 | 63 | 360 | 1.7 | 7.0 | 0.00 | 0.00 | 0.00 | 64 | 1015.8 |
| 20260502111530 | 62 | 360 | 1.7 | 5.2 | 0.00 | 0.00 | 0.00 | 65 | 1015.9 |
| 20260502111012 | 62 | 360 | 1.7 | 10.4 | 0.00 | 0.00 | 0.00 | 67 | 1016.1 |
| 20260502110510 | 61 | 220 | 3.5 | 10.4 | 0.00 | 0.00 | 0.00 | 66 | 1016.2 |
| 20260502110031 | 62 | 360 | 5.2 | 10.4 | 0.00 | 0.00 | 0.00 | 65 | 1016.2 |
| 20260502105513 | 61 | 360 | 2.6 | 8.7 | 0.00 | 0.00 | 0.00 | 66 | 1016.3 |
| 20260502105010 | 61 | 360 | 2.6 | 8.7 | 0.00 | 0.00 | 0.00 | 64 | 1016.4 |
| 20260502104528 | 62 | 0 | 1.7 | 7.8 | 0.00 | 0.00 | 0.00 | 66 | 1016.2 |
| 20260502104008 | 62 | 360 | 2.6 | 7.8 | 0.00 | 0.00 | 0.00 | 65 | 1016.2 |
| 20260502103508 | 62 | 360 | 2.6 | 5.2 | 0.00 | 0.00 | 0.00 | 66 | 1016.2 |
| 20260502103030 | 61 | 360 | 0.9 | 3.5 | 0.00 | 0.00 | 0.00 | 69 | 1016.2 |
| 20260502102510 | 60 | 360 | 0.9 | 4.3 | 0.00 | 0.00 | 0.00 | 68 | 1016.2 |
| 20260502102011 | 60 | 360 | 1.7 | 4.3 | 0.00 | 0.00 | 0.00 | 68 | 1016.3 |
| 20260502101540 | 60 | 229 | 0.9 | 3.5 | 0.00 | 0.00 | 0.00 | 68 | 1016.3 |
| 20260502101007 | 60 | 360 | 0.0 | 5.2 | 0.00 | 0.00 | 0.00 | 69 | 1016.2 |
| 20260502100512 | 59 | 360 | 0.9 | 5.2 | 0.00 | 0.00 | 0.00 | 70 | 1016.3 |
| 20260502091528 | 57 | 360 | 1.7 | 5.2 | 0.00 | 0.00 | 0.00 | 76 | 1017.0 |
| 20260502091007 | 57 | 205 | 0.0 | 5.2 | 0.00 | 0.00 | 0.00 | 77 | 1017.2 |
| 20260502090507 | 57 | 360 | 0.9 | 5.2 | 0.00 | 0.00 | 0.00 | 76 | 1017.3 |
| 20260502071530 | 52 | 0 | 0.0 | 2.6 | 0.00 | 0.00 | 0.00 | 87 | 1017.5 |
| 20260502071013 | 52 | 0 | 0.9 | 3.5 | 0.00 | 0.00 | 0.00 | 88 | 1017.5 |
| 20260502070509 | 51 | 360 | 0.0 | 3.5 | 0.00 | 0.00 | 0.00 | 89 | 1017.5 |
| 20260502070028 | 51 | 360 | 0.9 | 3.5 | 0.00 | 0.00 | 0.00 | 89 | 1017.5 |
| 20260502065510 | 51 | 360 | 0.0 | 2.6 | 0.00 | 0.00 | 0.00 | 90 | 1017.3 |
| 20260502065009 | 51 | 0 | 0.0 | 2.6 | 0.00 | 0.00 | 0.00 | 91 | 1017.4 |
| 20260502064527 | 51 | 0 | 0.0 | 2.6 | 0.00 | 0.00 | 0.00 | 90 | 1017.5 |
| 20260502064010 | 50 | 360 | 0.9 | 2.6 | 0.00 | 0.00 | 0.00 | 91 | 1017.4 |
| 20260502063509 | 50 | 360 | 0.0 | 1.7 | 0.00 | 0.00 | 0.00 | 91 | 1017.3 |
| 20260502063030 | 50 | 0 | 0.0 | 0.0 | 0.00 | 0.00 | 0.00 | 92 | 1017.3 |
| 20260502062511 | 50 | 0 | 0.0 | 0.0 | 0.00 | 0.00 | 0.00 | 91 | 1017.3 |
| 20260502062016 | 50 | 0 | 0.0 | 0.9 | 0.00 | 0.00 | 0.00 | 91 | 1017.3 |
| 20260502061531 | 49 | 0 | 0.0 | 0.9 | 0.00 | 0.00 | 0.00 | 92 | 1017.3 |
| 20260502061008 | 49 | 0 | 0.0 | 1.7 | 0.00 | 0.00 | 0.00 | 92 | 1017.3 |
| 20260502060513 | 49 | 0 | 0.0 | 1.7 | 0.00 | 0.00 | 0.00 | 92 | 1017.3 |
| 20260502060030 | 48 | 0 | 0.0 | 0.9 | 0.00 | 0.00 | 0.00 | 92 | 1017.2 |
| 20260502055509 | 48 | 0 | 0.0 | 0.9 | 0.00 | 0.00 | 0.00 | 92 | 1017.3 |
| 20260502055011 | 48 | 0 | 0.0 | 0.9 | 0.00 | 0.00 | 0.00 | 92 | 1017.1 |
| 20260502054527 | 47 | 0 | 0.0 | 0.0 | 0.00 | 0.00 | 0.00 | 92 | 1017.2 |
| 20260502054008 | 47 | 0 | 0.0 | 0.0 | 0.00 | 0.00 | 0.00 | 92 | 1017.3 |
| 20260502053512 | 47 | 0 | 0.0 | 0.0 | 0.00 | 0.00 | 0.00 | 91 | 1017.3 |
| 20260502053028 | 47 | 0 | 0.0 | 0.9 | 0.00 | 0.00 | 0.00 | 91 | 1017.2 |
| 20260502052510 | 46 | 0 | 0.0 | 0.9 | 0.00 | 0.00 | 0.00 | 91 | 1017.2 |
| 20260502052009 | 46 | 0 | 0.0 | 0.0 | 0.00 | 0.00 | 0.00 | 92 | 1017.2 |
| 20260502051533 | 46 | 0 | 0.0 | 0.0 | 0.00 | 0.00 | 0.00 | 91 | 1017.1 |
| 20260502051009 | 46 | 0 | 0.0 | 0.0 | 0.00 | 0.00 | 0.00 | 91 | 1017.1 |
| 20260502050510 | 46 | 0 | 0.0 | 0.0 | 0.00 | 0.00 | 0.00 | 91 | 1017.0 |
| 20260502050035 | 46 | 0 | 0.0 | 0.0 | 0.00 | 0.00 | 0.00 | 90 | 1017.0 |
| 20260502045509 | 46 | 0 | 0.0 | 0.0 | 0.00 | 0.00 | 0.00 | 90 | 1017.1 |
| 20260502045013 | 46 | 0 | 0.0 | 0.0 | 0.00 | 0.00 | 0.00 | 90 | 1017.1 |
| 20260502044531 | 46 | 0 | 0.0 | 0.0 | 0.00 | 0.00 | 0.00 | 90 | 1017.1 |
| 20260502044012 | 46 | 0 | 0.0 | 0.0 | 0.00 | 0.00 | 0.00 | 90 | 1017.1 |
| 20260502043508 | 46 | 0 | 0.0 | 0.0 | 0.00 | 0.00 | 0.00 | 89 | 1017.1 |
| 20260502043030 | 46 | 0 | 0.0 | 0.0 | 0.00 | 0.00 | 0.00 | 89 | 1017.2 |
| 20260502042509 | 46 | 0 | 0.0 | 0.9 | 0.00 | 0.00 | 0.00 | 90 | 1017.2 |
| 20260502042014 | 47 | 0 | 0.0 | 0.9 | 0.00 | 0.00 | 0.00 | 89 | 1017.2 |
| 20260502041542 | 47 | 0 | 0.0 | 0.9 | 0.00 | 0.00 | 0.00 | 89 | 1017.2 |
| 20260502041010 | 47 | 0 | 0.0 | 0.9 | 0.00 | 0.00 | 0.00 | 89 | 1017.2 |
| 20260502040508 | 47 | 0 | 0.0 | 0.0 | 0.00 | 0.00 | 0.00 | 88 | 1017.1 |
| 20260502040027 | 47 | 0 | 0.0 | 0.9 | 0.00 | 0.00 | 0.00 | 89 | 1017.2 |
| 20260502035510 | 48 | 0 | 0.0 | 0.9 | 0.00 | 0.00 | 0.00 | 88 | 1017.3 |
| 20260502035011 | 48 | 0 | 0.0 | 0.9 | 0.00 | 0.00 | 0.00 | 88 | 1017.3 |
| 20260502034526 | 48 | 0 | 0.0 | 0.0 | 0.00 | 0.00 | 0.00 | 89 | 1017.3 |
| 20260502034011 | 48 | 0 | 0.0 | 0.0 | 0.00 | 0.00 | 0.00 | 88 | 1017.3 |
| 20260502033514 | 49 | 0 | 0.0 | 0.0 | 0.00 | 0.00 | 0.00 | 88 | 1017.2 |
| 20260502033031 | 49 | 0 | 0.0 | 0.0 | 0.00 | 0.00 | 0.00 | 88 | 1017.2 |
| 20260502032511 | 49 | 0 | 0.0 | 0.0 | 0.00 | 0.00 | 0.00 | 88 | 1017.3 |
| 20260502032009 | 49 | 0 | 0.0 | 0.0 | 0.00 | 0.00 | 0.00 | 88 | 1017.3 |
| 20260502031528 | 49 | 0 | 0.0 | 0.0 | 0.00 | 0.00 | 0.00 | 87 | 1017.3 |
| 20260502031009 | 50 | 0 | 0.0 | 0.0 | 0.00 | 0.00 | 0.00 | 87 | 1017.3 |
| 20260502030510 | 50 | 0 | 0.0 | 0.0 | 0.00 | 0.00 | 0.00 | 87 | 1017.4 |
| 20260502030028 | 50 | 0 | 0.0 | 0.0 | 0.00 | 0.00 | 0.00 | 87 | 1017.3 |
| 20260502025509 | 50 | 0 | 0.0 | 0.0 | 0.00 | 0.00 | 0.00 | 87 | 1017.5 |
| 20260502025011 | 50 | 0 | 0.0 | 0.0 | 0.00 | 0.00 | 0.00 | 87 | 1017.5 |
| 20260502024529 | 50 | 0 | 0.0 | 0.0 | 0.00 | 0.00 | 0.00 | 87 | 1017.5 |
| 20260502024010 | 50 | 0 | 0.0 | 0.0 | 0.00 | 0.00 | 0.00 | 87 | 1017.5 |
| 20260502023513 | 50 | 0 | 0.0 | 0.0 | 0.00 | 0.00 | 0.00 | 87 | 1017.6 |
| 20260502023028 | 50 | 0 | 0.0 | 0.9 | 0.00 | 0.00 | 0.00 | 87 | 1017.6 |
| 20260502022510 | 50 | 0 | 0.0 | 0.9 | 0.00 | 0.00 | 0.00 | 87 | 1017.7 |
| 20260502022010 | 51 | 0 | 0.0 | 0.9 | 0.00 | 0.00 | 0.00 | 87 | 1017.6 |
| 20260502021530 | 51 | 0 | 0.0 | 0.9 | 0.00 | 0.00 | 0.00 | 86 | 1017.6 |
| 20260502021012 | 51 | 0 | 0.0 | 1.7 | 0.00 | 0.00 | 0.00 | 86 | 1017.7 |
| 20260502020511 | 51 | 0 | 0.0 | 1.7 | 0.00 | 0.00 | 0.00 | 86 | 1017.7 |
| 20260502020028 | 51 | 0 | 0.0 | 0.9 | 0.00 | 0.00 | 0.00 | 86 | 1017.7 |
| 20260502015509 | 51 | 0 | 0.0 | 0.0 | 0.00 | 0.00 | 0.00 | 85 | 1017.7 |
| 20260502015013 | 51 | 0 | 0.0 | 0.0 | 0.00 | 0.00 | 0.00 | 84 | 1017.8 |
| 20260502014532 | 52 | 0 | 0.0 | 0.9 | 0.00 | 0.00 | 0.00 | 84 | 1017.7 |
| 20260502014010 | 52 | 0 | 0.0 | 0.9 | 0.00 | 0.00 | 0.00 | 84 | 1017.8 |
| 20260502013511 | 52 | 0 | 0.0 | 1.7 | 0.00 | 0.00 | 0.00 | 84 | 1017.9 |
| 20260502013027 | 52 | 0 | 0.0 | 1.7 | 0.00 | 0.00 | 0.00 | 84 | 1017.9 |
| 20260502012515 | 53 | 0 | 0.0 | 1.7 | 0.00 | 0.00 | 0.00 | 84 | 1018.0 |
| 20260502012010 | 53 | 360 | 0.0 | 1.7 | 0.00 | 0.00 | 0.00 | 84 | 1018.1 |
| 20260502011528 | 53 | 0 | 0.0 | 1.7 | 0.00 | 0.00 | 0.00 | 84 | 1018.1 |
| 20260502011011 | 53 | 0 | 0.0 | 1.7 | 0.00 | 0.00 | 0.00 | 84 | 1018.2 |
| 20260502010511 | 53 | 241 | 0.0 | 1.7 | 0.00 | 0.00 | 0.00 | 84 | 1018.2 |
| 20260502010030 | 53 | 0 | 0.0 | 2.6 | 0.00 | 0.00 | 0.00 | 84 | 1018.3 |
| 20260502005511 | 53 | 360 | 0.0 | 2.6 | 0.00 | 0.00 | 0.00 | 84 | 1018.4 |
| 20260502005010 | 53 | 0 | 0.0 | 2.6 | 0.00 | 0.00 | 0.00 | 85 | 1018.3 |
| 20260502004530 | 53 | 245 | 0.0 | 2.6 | 0.00 | 0.00 | 0.00 | 85 | 1018.3 |
| 20260502004011 | 54 | 360 | 0.0 | 2.6 | 0.00 | 0.00 | 0.00 | 86 | 1018.3 |
| 20260502003510 | 54 | 0 | 0.0 | 2.6 | 0.00 | 0.00 | 0.00 | 87 | 1018.4 |
| 20260502003027 | 54 | 0 | 0.0 | 2.6 | 0.00 | 0.00 | 0.00 | 88 | 1018.5 |
| 20260502002510 | 54 | 360 | 0.0 | 0.9 | 0.00 | 0.00 | 0.00 | 88 | 1018.4 |
| 20260502002011 | 54 | 0 | 0.0 | 0.0 | 0.00 | 0.00 | 0.00 | 89 | 1018.4 |
| 20260502001528 | 54 | 0 | 0.0 | 0.0 | 0.00 | 0.00 | 0.00 | 89 | 1018.4 |
| 20260502001011 | 54 | 0 | 0.0 | 0.0 | 0.00 | 0.00 | 0.00 | 89 | 1018.5 |
| 20260502000511 | 55 | 0 | 0.0 | 0.9 | 0.00 | 0.00 | 0.00 | 89 | 1018.5 |
| 20260502000028 | 55 | 0 | 0.0 | 1.7 | 0.00 | 0.00 | 0.00 | 89 | 1018.4 |
| 20260501235511 | 55 | 360 | 0.0 | 1.7 | 0.00 | 0.00 | 0.00 | 89 | 1018.4 |
| 20260501235011 | 55 | 0 | 0.0 | 2.6 | 0.00 | 0.00 | 0.00 | 89 | 1018.4 |
| 20260501234527 | 55 | 0 | 0.0 | 2.6 | 0.00 | 0.00 | 0.00 | 89 | 1018.4 |
| 20260501234011 | 55 | 360 | 0.0 | 2.6 | 0.00 | 0.00 | 0.00 | 89 | 1018.5 |
| 20260501233511 | 55 | 0 | 0.0 | 0.0 | 0.00 | 0.00 | 0.00 | 88 | 1018.5 |
| 20260501233028 | 55 | 0 | 0.0 | 0.0 | 0.00 | 0.00 | 0.00 | 89 | 1018.6 |
| 20260501232513 | 55 | 0 | 0.0 | 0.0 | 0.00 | 0.00 | 0.00 | 89 | 1018.5 |
| 20260501232011 | 55 | 0 | 0.0 | 0.0 | 0.00 | 0.00 | 0.00 | 89 | 1018.6 |
| 20260501231546 | 55 | 0 | 0.0 | 0.0 | 0.00 | 0.00 | 0.00 | 89 | 1018.6 |
| 20260501231010 | 55 | 0 | 0.0 | 0.0 | 0.00 | 0.00 | 0.00 | 89 | 1018.7 |
| 20260501230508 | 55 | 0 | 0.0 | 0.0 | 0.00 | 0.00 | 0.00 | 89 | 1018.7 |
| 20260501230030 | 55 | 0 | 0.0 | 0.0 | 0.00 | 0.00 | 0.00 | 89 | 1018.7 |
| 20260501225511 | 55 | 0 | 0.0 | 0.0 | 0.00 | 0.00 | 0.00 | 89 | 1018.7 |
| 20260501225013 | 54 | 0 | 0.0 | 0.9 | 0.00 | 0.00 | 0.00 | 89 | 1018.6 |
| 20260501224528 | 54 | 0 | 0.0 | 1.7 | 0.00 | 0.00 | 0.00 | 89 | 1018.6 |
| 20260501224010 | 54 | 360 | 0.0 | 2.6 | 0.00 | 0.00 | 0.00 | 89 | 1018.7 |
| 20260501223513 | 54 | 0 | 0.0 | 2.6 | 0.00 | 0.00 | 0.00 | 89 | 1018.6 |
| 20260501223046 | 54 | 0 | 0.0 | 1.7 | 0.00 | 0.00 | 0.00 | 90 | 1018.8 |
| 20260501222507 | 54 | 0 | 0.0 | 2.6 | 0.00 | 0.00 | 0.00 | 90 | 1018.7 |
| 20260501222010 | 54 | 0 | 0.0 | 2.6 | 0.00 | 0.00 | 0.00 | 89 | 1018.8 |
| 20260501221530 | 54 | 360 | 0.0 | 2.6 | 0.00 | 0.00 | 0.00 | 89 | 1018.7 |
| 20260501221011 | 54 | 360 | 0.0 | 2.6 | 0.00 | 0.00 | 0.00 | 89 | 1018.7 |
| 20260501220510 | 54 | 0 | 0.0 | 0.0 | 0.00 | 0.00 | 0.00 | 89 | 1018.7 |
| 20260501220030 | 54 | 0 | 0.0 | 1.7 | 0.00 | 0.00 | 0.00 | 89 | 1018.6 |
| 20260501215508 | 54 | 0 | 0.0 | 2.6 | 0.00 | 0.00 | 0.00 | 88 | 1018.7 |
| 20260501215012 | 54 | 0 | 0.0 | 2.6 | 0.00 | 0.00 | 0.00 | 89 | 1018.7 |
| 20260501214528 | 54 | 0 | 0.0 | 1.7 | 0.00 | 0.00 | 0.00 | 88 | 1018.7 |
| 20260501214010 | 54 | 0 | 0.0 | 0.9 | 0.00 | 0.00 | 0.00 | 88 | 1018.7 |
| 20260501213510 | 55 | 0 | 0.0 | 0.9 | 0.00 | 0.00 | 0.00 | 88 | 1018.7 |
| 20260501213033 | 55 | 0 | 0.0 | 0.9 | 0.00 | 0.00 | 0.00 | 88 | 1018.6 |
| 20260501212508 | 55 | 0 | 0.0 | 0.9 | 0.00 | 0.00 | 0.00 | 87 | 1018.6 |
| 20260501212011 | 55 | 0 | 0.0 | 1.7 | 0.00 | 0.00 | 0.00 | 87 | 1018.5 |
| 20260501211530 | 55 | 0 | 0.0 | 1.7 | 0.00 | 0.00 | 0.00 | 87 | 1018.5 |
| 20260501211016 | 55 | 0 | 0.0 | 2.6 | 0.00 | 0.00 | 0.00 | 87 | 1018.5 |
| 20260501210507 | 55 | 360 | 0.0 | 2.6 | 0.00 | 0.00 | 0.00 | 87 | 1018.5 |
| 20260501210029 | 56 | 0 | 0.9 | 2.6 | 0.00 | 0.00 | 0.00 | 87 | 1018.5 |
| 20260501205510 | 56 | 0 | 0.0 | 2.6 | 0.00 | 0.00 | 0.00 | 86 | 1018.5 |
| 20260501205008 | 56 | 360 | 0.0 | 2.6 | 0.00 | 0.00 | 0.00 | 86 | 1018.5 |
| 20260501204528 | 56 | 0 | 0.0 | 2.6 | 0.00 | 0.00 | 0.00 | 86 | 1018.6 |
| 20260501204010 | 56 | 360 | 0.0 | 2.6 | 0.00 | 0.00 | 0.00 | 86 | 1018.5 |
| 20260501203510 | 56 | 0 | 0.0 | 1.7 | 0.00 | 0.00 | 0.00 | 85 | 1018.5 |
| 20260501203028 | 57 | 0 | 0.0 | 1.7 | 0.00 | 0.00 | 0.00 | 85 | 1018.6 |
| 20260501202509 | 57 | 0 | 0.0 | 3.5 | 0.00 | 0.00 | 0.00 | 85 | 1018.6 |
| 20260501202015 | 57 | 0 | 0.9 | 7.0 | 0.00 | 0.00 | 0.00 | 84 | 1018.6 |
| 20260501201530 | 57 | 360 | 0.9 | 7.0 | 0.00 | 0.00 | 0.00 | 83 | 1018.5 |
| 20260501201012 | 58 | 360 | 1.7 | 7.0 | 0.00 | 0.00 | 0.00 | 82 | 1018.4 |
| 20260501200508 | 58 | 360 | 1.7 | 4.3 | 0.00 | 0.00 | 0.00 | 82 | 1018.6 |
| 20260501200028 | 59 | 360 | 0.9 | 2.6 | 0.00 | 0.00 | 0.00 | 81 | 1018.5 |
| 20260501195511 | 59 | 205 | 0.9 | 2.6 | 0.00 | 0.00 | 0.00 | 81 | 1018.5 |
| 20260501195008 | 59 | 0 | 0.0 | 1.7 | 0.00 | 0.00 | 0.00 | 80 | 1018.5 |
| 20260501194528 | 59 | 360 | 0.0 | 2.6 | 0.00 | 0.00 | 0.00 | 80 | 1018.4 |
| 20260501194010 | 59 | 202 | 0.0 | 2.6 | 0.00 | 0.00 | 0.00 | 80 | 1018.4 |
| 20260501193510 | 59 | 0 | 0.0 | 2.6 | 0.00 | 0.00 | 0.00 | 79 | 1018.4 |
| 20260501193029 | 60 | 360 | 0.9 | 4.3 | 0.00 | 0.00 | 0.00 | 79 | 1018.4 |
| 20260501192510 | 60 | 360 | 0.9 | 4.3 | 0.00 | 0.00 | 0.00 | 79 | 1018.4 |
| 20260501192011 | 60 | 0 | 0.9 | 4.3 | 0.00 | 0.00 | 0.00 | 78 | 1018.3 |
| 20260501191529 | 60 | 360 | 0.9 | 4.3 | 0.00 | 0.00 | 0.00 | 78 | 1018.4 |
| 20260501191010 | 61 | 360 | 0.9 | 7.0 | 0.00 | 0.00 | 0.00 | 78 | 1018.3 |
| 20260501190509 | 61 | 360 | 1.7 | 7.0 | 0.00 | 0.00 | 0.00 | 77 | 1018.3 |
| 20260501190030 | 61 | 190 | 1.7 | 7.8 | 0.00 | 0.00 | 0.00 | 77 | 1018.2 |
| 20260501185509 | 62 | 209 | 1.7 | 7.8 | 0.00 | 0.00 | 0.00 | 76 | 1018.3 |
| 20260501185013 | 62 | 360 | 0.9 | 7.0 | 0.00 | 0.00 | 0.00 | 76 | 1018.1 |
| 20260501184530 | 62 | 360 | 1.7 | 7.0 | 0.00 | 0.00 | 0.00 | 75 | 1018.2 |
| 20260501184012 | 63 | 360 | 2.6 | 7.0 | 0.00 | 0.00 | 0.00 | 75 | 1018.2 |
| 20260501183511 | 63 | 360 | 1.7 | 7.8 | 0.00 | 0.00 | 0.00 | 74 | 1018.2 |
| 20260501183029 | 63 | 360 | 2.6 | 7.8 | 0.00 | 0.00 | 0.00 | 74 | 1018.2 |
| 20260501182508 | 64 | 199 | 3.5 | 7.8 | 0.00 | 0.00 | 0.00 | 73 | 1018.1 |
| 20260501182012 | 64 | 360 | 1.7 | 4.3 | 0.00 | 0.00 | 0.00 | 72 | 1018.2 |
| 20260501181534 | 64 | 360 | 0.9 | 5.2 | 0.00 | 0.00 | 0.00 | 71 | 1018.2 |
| 20260501181011 | 64 | 360 | 1.7 | 7.0 | 0.00 | 0.00 | 0.00 | 70 | 1018.1 |
| 20260501180510 | 65 | 360 | 2.6 | 7.0 | 0.00 | 0.00 | 0.00 | 69 | 1018.0 |
| 20260501180027 | 65 | 360 | 1.7 | 4.3 | 0.00 | 0.00 | 0.00 | 68 | 1018.0 |
| 20260501175510 | 65 | 190 | 1.7 | 4.3 | 0.00 | 0.00 | 0.00 | 67 | 1017.8 |
| 20260501175014 | 65 | 360 | 1.7 | 5.2 | 0.00 | 0.00 | 0.00 | 66 | 1017.9 |
| 20260501174542 | 65 | 360 | 1.7 | 7.0 | 0.00 | 0.00 | 0.00 | 66 | 1017.7 |
| 20260501174010 | 65 | 360 | 1.7 | 7.0 | 0.00 | 0.00 | 0.00 | 65 | 1017.7 |
| 20260501173510 | 65 | 360 | 1.7 | 11.3 | 0.00 | 0.00 | 0.00 | 65 | 1017.6 |
| 20260501173036 | 66 | 360 | 3.5 | 11.3 | 0.00 | 0.00 | 0.00 | 64 | 1017.6 |
| 20260501172511 | 66 | 198 | 1.7 | 10.4 | 0.00 | 0.00 | 0.00 | 64 | 1017.6 |
| 20260501172011 | 66 | 360 | 2.6 | 11.3 | 0.00 | 0.00 | 0.00 | 63 | 1017.7 |
| 20260501171530 | 66 | 360 | 3.5 | 11.3 | 0.00 | 0.00 | 0.00 | 62 | 1017.6 |
| 20260501171011 | 67 | 360 | 6.1 | 11.3 | 0.00 | 0.00 | 0.00 | 62 | 1017.6 |
| 20260501170511 | 67 | 360 | 4.3 | 9.6 | 0.00 | 0.00 | 0.00 | 61 | 1017.5 |
| 20260501170029 | 68 | 360 | 4.3 | 10.4 | 0.00 | 0.00 | 0.00 | 61 | 1017.5 |
| 20260501165513 | 68 | 360 | 3.5 | 10.4 | 0.00 | 0.00 | 0.00 | 60 | 1017.5 |
| 20260501165013 | 69 | 360 | 4.3 | 11.3 | 0.00 | 0.00 | 0.00 | 59 | 1017.4 |
| 20260501164538 | 70 | 247 | 2.6 | 11.3 | 0.00 | 0.00 | 0.00 | 60 | 1017.5 |
| 20260501164014 | 71 | 360 | 1.7 | 10.4 | 0.00 | 0.00 | 0.00 | 61 | 1017.4 |
| 20260501163507 | 71 | 360 | 4.3 | 10.4 | 0.00 | 0.00 | 0.00 | 60 | 1017.3 |
| 20260501163030 | 72 | 360 | 4.3 | 11.3 | 0.00 | 0.00 | 0.00 | 59 | 1017.2 |
| 20260501162507 | 73 | 360 | 2.6 | 11.3 | 0.00 | 0.00 | 0.00 | 57 | 1017.2 |
| 20260501162009 | 74 | 360 | 5.2 | 11.3 | 0.00 | 0.00 | 0.00 | 56 | 1017.3 |
| 20260501161530 | 74 | 205 | 3.5 | 11.3 | 0.00 | 0.00 | 0.00 | 56 | 1017.1 |